Location: Newark
(42.1667°N, 14.5667°E)
Time: 23:43:56
(UTC+00:00)

N. Korean satellite - Visible Passes

Search period start: 20 January 2020 00:00
Search period end: 30 January 2020 00:00
Orbit: 454 x 508 km, 97.2° (Epoch: 20 January)

Date Brightness Start Highest point End Pass type
(mag) Time Alt. Az. Time Alt. Az. Time Alt. Az.
20 Jan 6.8 04:45:44 10° NNE 04:49:16 69° E 04:52:49 10° S visible
20 Jan 9.7 16:56:00 10° SW 16:58:21 17° W 17:00:42 10° NW visible
21 Jan 8.5 04:20:32 10° NNE 04:23:43 31° E 04:26:56 10° SSE visible
21 Jan 8.3 16:29:33 10° SSW 16:32:43 36° W 16:35:55 10° NNW visible
22 Jan 9.7 03:55:55 10° NE 03:58:05 15° E 04:00:17 10° SE visible
22 Jan 7.3 05:28:22 10° N 05:31:33 31° WNW 05:34:45 10° SW visible
23 Jan 6.4 05:02:36 10° N 05:06:08 69° WNW 05:09:43 10° SSW visible
23 Jan 10.2 17:14:37 10° WSW 17:15:21 11° W 17:16:05 10° WNW visible
24 Jan 7.4 04:37:09 10° NNE 04:40:39 52° E 04:44:11 10° S visible
24 Jan 9.4 16:46:57 10° SSW 16:49:40 22° W 16:52:23 10° NW visible
25 Jan 8.9 04:12:04 10° NE 04:15:04 25° E 04:18:05 10° SSE visible
25 Jan 7.9 05:45:38 10° NNW 05:48:19 20° WNW 05:51:02 10° WSW visible
26 Jan 10.0 03:47:50 10° ENE 03:49:24 12° E 03:50:59 10° ESE visible
26 Jan 7.0 05:19:35 10° N 05:22:58 40° WNW 05:26:23 10° SW visible
27 Jan 6.5 04:53:55 10° NNE 04:57:32 89° WNW 05:01:10 10° SSW visible
27 Jan 9.9 17:04:51 10° WSW 17:06:38 14° W 17:08:25 10° WNW visible
28 Jan 8.0 04:28:34 10° NNE 04:32:00 40° E 04:35:28 10° S visible
28 Jan 9.0 16:37:59 10° SSW 16:40:58 28° W 16:43:57 10° NW visible
29 Jan 9.3 04:03:40 10° NE 04:06:24 20° E 04:09:08 10° SE visible
29 Jan 7.6 05:36:44 10° NNW 05:39:45 25° WNW 05:42:47 10° SW visible
